Time,TemperatureF,DewpointF,PressureIn,WindDirection,WindDirectionDegrees,WindSpeedMPH,WindSpeedGustMPH,Humidity,HourlyPrecipIn,Conditions,Clouds,dailyrainin,SoftwareType,DateUTC
2013-05-01 00:00:00,57.4,53.2,30.10,South,186,1.0,1.0,86,0.00,,,0.00,Wunderground v.1.15,2013-05-01 04:00:00,
2013-05-01 00:01:00,57.4,53.2,30.10,South,186,0.0,1.0,86,0.00,,,0.00,Wunderground v.1.15,2013-05-01 04:01:00,
2013-05-01 00:06:00,57.4,53.2,30.10,South,186,0.0,1.0,86,0.00,,,0.00,Wunderground v.1.15,2013-05-01 04:06:00,
2013-05-01 00:11:00,57.2,53.0,30.10,South,186,0.0,0.0,86,0.00,,,0.00,Wunderground v.1.15,2013-05-01 04:11:00,
2013-05-01 00:16:00,57.1,53.3,30.10,South,186,0.0,1.0,87,0.00,,,0.00,Wunderground v.1.15,2013-05-01 04:16:00,
2013-05-01 00:21:00,57.0,53.2,30.10,South,186,0.0,1.0,87,0.00,,,0.00,Wunderground v.1.15,2013-05-01 04:21:00,
2013-05-01 00:26:00,56.9,53.1,30.10,South,186,0.0,1.0,87,0.00,,,0.00,Wunderground v.1.15,2013-05-01 04:26:00,
2013-05-01 00:31:00,56.8,53.0,30.10,South,186,0.0,0.0,87,0.00,,,0.00,Wunderground v.1.15,2013-05-01 04:31:00,
2013-05-01 00:36:00,56.7,52.9,30.10,South,186,0.0,2.0,87,0.00,,,0.00,Wunderground v.1.15,2013-05-01 04:36:00,
2013-05-01 00:41:00,56.6,53.1,30.10,South,186,0.0,0.0,88,0.00,,,0.00,Wunderground v.1.15,2013-05-01 04:41:00,
2013-05-01 00:46:00,56.5,53.0,30.10,South,186,0.0,0.0,88,0.00,,,0.00,Wunderground v.1.15,2013-05-01 04:46:00,
2013-05-01 00:51:00,56.5,53.0,30.11,South,186,0.0,0.0,88,0.00,,,0.00,Wunderground v.1.15,2013-05-01 04:51:00,
2013-05-01 00:56:00,56.6,53.1,30.11,South,186,0.0,0.0,88,0.00,,,0.00,Wunderground v.1.15,2013-05-01 04:56:00,
2013-05-01 01:01:00,56.5,53.0,30.11,South,186,0.0,0.0,88,0.00,,,0.00,Wunderground v.1.15,2013-05-01 05:01:00,
2013-05-01 01:06:00,56.5,53.0,30.11,South,186,0.0,0.0,88,0.00,,,0.00,Wunderground v.1.15,2013-05-01 05:06:00,
2013-05-01 01:11:00,56.5,53.0,30.11,South,186,0.0,0.0,88,0.00,,,0.00,Wunderground v.1.15,2013-05-01 05:11:00,
2013-05-01 01:16:00,56.4,52.9,30.11,South,186,0.0,0.0,88,0.00,,,0.00,Wunderground v.1.15,2013-05-01 05:16:00,
2013-05-01 01:21:00,56.3,52.8,30.11,South,186,0.0,0.0,88,0.00,,,0.00,Wunderground v.1.15,2013-05-01 05:21:00,
2013-05-01 01:26:00,56.2,53.0,30.11,South,186,0.0,0.0,89,0.00,,,0.00,Wunderground v.1.15,2013-05-01 05:26:00,
2013-05-01 01:31:00,56.1,52.9,30.11,South,186,0.0,0.0,89,0.00,,,0.00,Wunderground v.1.15,2013-05-01 05:31:00,
2013-05-01 01:36:00,56.0,52.8,30.11,South,186,0.0,0.0,89,0.00,,,0.00,Wunderground v.1.15,2013-05-01 05:36:00,
2013-05-01 01:41:00,55.8,52.6,30.12,South,186,0.0,0.0,89,0.00,,,0.00,Wunderground v.1.15,2013-05-01 05:41:00,
2013-05-01 01:46:00,55.6,52.4,30.11,South,186,0.0,0.0,89,0.00,,,0.00,Wunderground v.1.15,2013-05-01 05:46:00,
2013-05-01 01:51:00,55.4,52.2,30.11,South,186,0.0,0.0,89,0.00,,,0.00,Wunderground v.1.15,2013-05-01 05:51:00,
2013-05-01 01:56:00,55.2,52.3,30.11,South,186,0.0,0.0,90,0.00,,,0.00,Wunderground v.1.15,2013-05-01 05:56:00,
2013-05-01 02:01:00,55.1,52.2,30.11,South,186,0.0,0.0,90,0.00,,,0.00,Wunderground v.1.15,2013-05-01 06:01:00,
2013-05-01 02:06:00,55.0,52.4,30.11,South,186,0.0,0.0,91,0.00,,,0.00,Wunderground v.1.15,2013-05-01 06:06:00,
2013-05-01 02:11:00,55.0,52.4,30.11,South,186,0.0,0.0,91,0.00,,,0.00,Wunderground v.1.15,2013-05-01 06:11:00,
2013-05-01 02:16:00,54.9,52.3,30.12,South,186,0.0,0.0,91,0.00,,,0.00,Wunderground v.1.15,2013-05-01 06:16:00,
2013-05-01 02:21:00,54.7,52.1,30.12,South,186,0.0,0.0,91,0.00,,,0.00,Wunderground v.1.15,2013-05-01 06:21:00,
2013-05-01 02:26:00,54.6,52.0,30.12,South,186,0.0,0.0,91,0.00,,,0.00,Wunderground v.1.15,2013-05-01 06:26:00,
2013-05-01 02:30:00,54.7,52.1,30.11,South,186,0.0,0.0,91,0.00,,,0.00,Wunderground v.1.15,2013-05-01 06:30:00,
2013-05-01 02:35:00,54.8,52.5,30.11,South,186,0.0,0.0,92,0.00,,,0.00,Wunderground v.1.15,2013-05-01 06:35:00,
2013-05-01 02:40:00,54.9,52.6,30.11,South,186,0.0,0.0,92,0.00,,,0.00,Wunderground v.1.15,2013-05-01 06:40:00,
2013-05-01 02:45:00,54.9,52.3,30.12,South,186,0.0,0.0,91,0.00,,,0.00,Wunderground v.1.15,2013-05-01 06:45:00,
2013-05-01 02:50:00,55.0,52.4,30.12,South,186,0.0,0.0,91,0.00,,,0.00,Wunderground v.1.15,2013-05-01 06:50:00,
2013-05-01 02:55:00,55.0,52.4,30.12,South,186,0.0,0.0,91,0.00,,,0.00,Wunderground v.1.15,2013-05-01 06:55:00,
2013-05-01 03:00:00,55.0,52.4,30.12,South,186,0.0,0.0,91,0.00,,,0.00,Wunderground v.1.15,2013-05-01 07:00:00,
2013-05-01 03:05:00,55.0,52.4,30.12,South,186,0.0,0.0,91,0.00,,,0.00,Wunderground v.1.15,2013-05-01 07:05:00,
2013-05-01 03:10:00,54.8,52.2,30.12,South,186,0.0,0.0,91,0.00,,,0.00,Wunderground v.1.15,2013-05-01 07:10:00,
2013-05-01 03:15:00,54.8,52.2,30.12,South,186,0.0,0.0,91,0.00,,,0.00,Wunderground v.1.15,2013-05-01 07:15:00,
2013-05-01 03:20:00,54.8,52.5,30.13,South,186,0.0,0.0,92,0.00,,,0.00,Wunderground v.1.15,2013-05-01 07:20:00,
2013-05-01 03:25:00,54.8,52.5,30.13,South,186,0.0,0.0,92,0.00,,,0.00,Wunderground v.1.15,2013-05-01 07:25:00,
2013-05-01 03:30:00,54.8,52.5,30.13,South,186,0.0,0.0,92,0.00,,,0.00,Wunderground v.1.15,2013-05-01 07:30:00,
2013-05-01 03:35:00,54.7,52.1,30.13,South,186,0.0,0.0,91,0.00,,,0.00,Wunderground v.1.15,2013-05-01 07:35:00,
2013-05-01 03:40:00,54.5,51.9,30.13,South,186,0.0,0.0,91,0.00,,,0.00,Wunderground v.1.15,2013-05-01 07:40:00,
2013-05-01 03:45:00,54.3,52.0,30.13,South,186,0.0,0.0,92,0.00,,,0.00,Wunderground v.1.15,2013-05-01 07:45:00,
2013-05-01 03:50:00,54.1,51.8,30.13,South,186,0.0,0.0,92,0.00,,,0.00,Wunderground v.1.15,2013-05-01 07:50:00,
2013-05-01 03:55:00,53.9,51.6,30.13,South,186,0.0,0.0,92,0.00,,,0.00,Wunderground v.1.15,2013-05-01 07:55:00,
2013-05-01 04:00:00,53.8,51.5,30.13,South,186,0.0,0.0,92,0.00,,,0.00,Wunderground v.1.15,2013-05-01 08:00:00,
2013-05-01 04:05:00,53.7,51.7,30.13,South,186,0.0,0.0,93,0.00,,,0.00,Wunderground v.1.15,2013-05-01 08:05:00,
2013-05-01 04:10:00,53.6,51.3,30.14,South,186,0.0,0.0,92,0.00,,,0.00,Wunderground v.1.15,2013-05-01 08:10:00,
2013-05-01 04:15:00,53.5,51.5,30.14,South,186,0.0,0.0,93,0.00,,,0.00,Wunderground v.1.15,2013-05-01 08:15:00,
2013-05-01 04:20:00,53.3,51.3,30.14,South,186,0.0,0.0,93,0.00,,,0.00,Wunderground v.1.15,2013-05-01 08:20:00,
2013-05-01 04:25:00,53.2,51.2,30.14,South,186,0.0,1.0,93,0.00,,,0.00,Wunderground v.1.15,2013-05-01 08:25:00,
2013-05-01 04:30:00,53.0,51.0,30.14,South,186,0.0,0.0,93,0.00,,,0.00,Wunderground v.1.15,2013-05-01 08:30:00,
2013-05-01 04:35:00,53.0,51.0,30.14,South,186,0.0,2.0,93,0.00,,,0.00,Wunderground v.1.15,2013-05-01 08:35:00,
2013-05-01 04:40:00,53.1,51.4,30.14,South,186,0.0,0.0,94,0.00,,,0.00,Wunderground v.1.15,2013-05-01 08:40:00,
2013-05-01 04:45:00,53.2,51.5,30.15,South,186,1.0,1.0,94,0.00,,,0.00,Wunderground v.1.15,2013-05-01 08:45:00,
2013-05-01 04:50:00,53.3,51.6,30.15,South,186,0.0,0.0,94,0.00,,,0.00,Wunderground v.1.15,2013-05-01 08:50:00,
2013-05-01 04:55:00,53.3,51.3,30.15,South,186,0.0,0.0,93,0.00,,,0.00,Wunderground v.1.15,2013-05-01 08:55:00,
2013-05-01 05:00:00,53.2,51.2,30.15,South,186,0.0,0.0,93,0.00,,,0.00,Wunderground v.1.15,2013-05-01 09:00:00,
2013-05-01 05:05:00,53.2,51.2,30.15,South,186,0.0,1.0,93,0.00,,,0.00,Wunderground v.1.15,2013-05-01 09:05:00,
2013-05-01 05:10:00,53.2,51.2,30.15,South,186,0.0,0.0,93,0.00,,,0.00,Wunderground v.1.15,2013-05-01 09:10:00,
2013-05-01 05:15:00,53.2,51.2,30.15,South,186,0.0,1.0,93,0.00,,,0.00,Wunderground v.1.15,2013-05-01 09:15:00,
2013-05-01 05:20:00,53.1,51.1,30.15,South,186,0.0,0.0,93,0.00,,,0.00,Wunderground v.1.15,2013-05-01 09:20:00,
2013-05-01 05:25:00,53.0,51.0,30.16,South,186,0.0,0.0,93,0.00,,,0.00,Wunderground v.1.15,2013-05-01 09:25:00,
2013-05-01 05:30:00,52.9,50.9,30.16,South,186,0.0,0.0,93,0.00,,,0.00,Wunderground v.1.15,2013-05-01 09:30:00,
2013-05-01 05:35:00,52.9,50.9,30.16,South,186,1.0,1.0,93,0.00,,,0.00,Wunderground v.1.15,2013-05-01 09:35:00,
2013-05-01 05:40:00,52.8,50.8,30.16,South,186,1.0,1.0,93,0.00,,,0.00,Wunderground v.1.15,2013-05-01 09:40:00,
2013-05-01 05:45:00,52.7,50.7,30.16,South,186,1.0,2.0,93,0.00,,,0.00,Wunderground v.1.15,2013-05-01 09:45:00,
2013-05-01 05:50:00,52.5,50.5,30.16,South,186,1.0,2.0,93,0.00,,,0.00,Wunderground v.1.15,2013-05-01 09:50:00,
2013-05-01 05:55:00,52.4,50.4,30.16,South,186,0.0,2.0,93,0.00,,,0.00,Wunderground v.1.15,2013-05-01 09:55:00,
2013-05-01 06:00:00,52.4,50.4,30.17,South,186,0.0,1.0,93,0.00,,,0.00,Wunderground v.1.15,2013-05-01 10:00:00,
2013-05-01 06:05:00,52.4,50.4,30.17,South,186,0.0,1.0,93,0.00,,,0.00,Wunderground v.1.15,2013-05-01 10:05:00,
2013-05-01 06:10:00,52.4,50.4,30.18,South,186,0.0,0.0,93,0.00,,,0.00,Wunderground v.1.15,2013-05-01 10:10:00,
2013-05-01 06:15:00,52.4,50.4,30.18,South,186,0.0,1.0,93,0.00,,,0.00,Wunderground v.1.15,2013-05-01 10:15:00,
2013-05-01 06:20:00,52.6,50.6,30.18,South,186,0.0,0.0,93,0.00,,,0.00,Wunderground v.1.15,2013-05-01 10:20:00,
2013-05-01 06:25:00,52.6,50.6,30.18,South,186,0.0,1.0,93,0.00,,,0.00,Wunderground v.1.15,2013-05-01 10:25:00,
2013-05-01 06:30:00,52.7,50.7,30.19,South,186,0.0,0.0,93,0.00,,,0.00,Wunderground v.1.15,2013-05-01 10:30:00,
2013-05-01 06:35:00,52.7,50.7,30.19,South,186,0.0,1.0,93,0.00,,,0.00,Wunderground v.1.15,2013-05-01 10:35:00,
2013-05-01 06:40:00,52.8,50.8,30.19,South,186,0.0,0.0,93,0.00,,,0.00,Wunderground v.1.15,2013-05-01 10:40:00,
2013-05-01 06:45:00,52.7,50.4,30.19,South,186,0.0,0.0,92,0.00,,,0.00,Wunderground v.1.15,2013-05-01 10:45:00,
2013-05-01 06:50:00,52.7,50.4,30.20,South,186,0.0,0.0,92,0.00,,,0.00,Wunderground v.1.15,2013-05-01 10:50:00,
2013-05-01 06:55:00,52.8,50.8,30.20,South,186,0.0,1.0,93,0.00,,,0.00,Wunderground v.1.15,2013-05-01 10:55:00,
2013-05-01 07:00:00,52.8,50.5,30.20,South,186,0.0,0.0,92,0.00,,,0.00,Wunderground v.1.15,2013-05-01 11:00:00,
2013-05-01 07:05:00,53.0,50.7,30.21,South,186,2.0,2.0,92,0.00,,,0.00,Wunderground v.1.15,2013-05-01 11:05:00,
2013-05-01 07:10:00,53.1,50.8,30.21,South,186,1.0,1.0,92,0.00,,,0.00,Wunderground v.1.15,2013-05-01 11:10:00,
2013-05-01 07:15:00,53.1,50.8,30.21,South,186,0.0,2.0,92,0.00,,,0.00,Wunderground v.1.15,2013-05-01 11:15:00,
2013-05-01 07:20:00,53.1,50.8,30.21,South,186,1.0,1.0,92,0.00,,,0.00,Wunderground v.1.15,2013-05-01 11:20:00,
2013-05-01 07:25:00,53.2,50.9,30.21,South,186,0.0,2.0,92,0.00,,,0.00,Wunderground v.1.15,2013-05-01 11:25:00,
2013-05-01 07:30:00,53.5,51.2,30.22,South,186,1.0,1.0,92,0.00,,,0.00,Wunderground v.1.15,2013-05-01 11:30:00,
2013-05-01 07:35:00,53.9,51.6,30.22,South,186,0.0,2.0,92,0.00,,,0.00,Wunderground v.1.15,2013-05-01 11:35:00,
2013-05-01 07:40:00,54.5,51.9,30.22,SSE,153,1.0,2.0,91,0.00,,,0.00,Wunderground v.1.15,2013-05-01 11:40:00,
2013-05-01 07:45:00,55.1,52.5,30.22,SSE,153,2.0,2.0,91,0.00,,,0.00,Wunderground v.1.15,2013-05-01 11:45:00,
2013-05-01 07:50:00,55.7,52.5,30.23,ESE,105,0.0,1.0,89,0.00,,,0.00,Wunderground v.1.15,2013-05-01 11:50:00,
2013-05-01 07:55:00,56.0,52.5,30.23,ESE,114,1.0,4.0,88,0.00,,,0.00,Wunderground v.1.15,2013-05-01 11:55:00,
2013-05-01 08:00:00,56.2,52.7,30.23,ENE,58,0.0,5.0,88,0.00,,,0.00,Wunderground v.1.15,2013-05-01 12:00:00,
2013-05-01 08:05:00,56.3,52.5,30.23,SE,144,3.0,4.0,87,0.00,,,0.00,Wunderground v.1.15,2013-05-01 12:05:00,
2013-05-01 08:10:00,56.7,52.9,30.23,ESE,117,2.0,4.0,87,0.00,,,0.00,Wunderground v.1.15,2013-05-01 12:10:00,
2013-05-01 08:15:00,57.2,53.4,30.23,ESE,110,3.0,3.0,87,0.00,,,0.00,Wunderground v.1.15,2013-05-01 12:15:00,
2013-05-01 08:20:00,57.9,53.7,30.23,SE,140,1.0,4.0,86,0.00,,,0.00,Wunderground v.1.15,2013-05-01 12:20:00,
2013-05-01 08:25:00,58.5,54.0,30.23,SE,140,1.0,2.0,85,0.00,,,0.00,Wunderground v.1.15,2013-05-01 12:25:00,
2013-05-01 08:30:00,59.2,54.4,30.24,SSE,153,1.0,5.0,84,0.00,,,0.00,Wunderground v.1.15,2013-05-01 12:30:00,
2013-05-01 08:35:00,59.7,54.2,30.24,SSE,149,2.0,5.0,82,0.00,,,0.00,Wunderground v.1.15,2013-05-01 12:35:00,
2013-05-01 08:40:00,60.1,54.6,30.24,South,188,2.0,5.0,82,0.00,,,0.00,Wunderground v.1.15,2013-05-01 12:40:00,
2013-05-01 08:45:00,60.5,54.6,30.24,SW,215,2.0,4.0,81,0.00,,,0.00,Wunderground v.1.15,2013-05-01 12:45:00,
2013-05-01 08:50:00,60.8,54.6,30.24,SSE,155,1.0,6.0,80,0.00,,,0.00,Wunderground v.1.15,2013-05-01 12:50:00,
2013-05-01 08:55:00,61.0,54.4,30.24,SSW,194,1.0,5.0,79,0.00,,,0.00,Wunderground v.1.15,2013-05-01 12:55:00,
2013-05-01 09:00:00,61.4,55.2,30.24,South,177,1.0,5.0,80,0.00,,,0.00,Wunderground v.1.15,2013-05-01 13:00:00,
2013-05-01 09:05:00,62.0,55.1,30.24,South,169,2.0,6.0,78,0.00,,,0.00,Wunderground v.1.15,2013-05-01 13:05:00,
2013-05-01 09:10:00,62.3,55.0,30.24,SSW,197,3.0,6.0,77,0.00,,,0.00,Wunderground v.1.15,2013-05-01 13:10:00,
2013-05-01 09:15:00,62.6,54.9,30.24,SSE,153,3.0,5.0,76,0.00,,,0.00,Wunderground v.1.15,2013-05-01 13:15:00,
2013-05-01 09:20:00,62.8,55.1,30.24,ESE,123,0.0,5.0,76,0.00,,,0.00,Wunderground v.1.15,2013-05-01 13:20:00,
2013-05-01 09:25:00,63.2,55.1,30.24,SE,143,2.0,7.0,75,0.00,,,0.00,Wunderground v.1.15,2013-05-01 13:25:00,
2013-05-01 09:30:00,63.6,55.5,30.24,South,181,1.0,7.0,75,0.00,,,0.00,Wunderground v.1.15,2013-05-01 13:30:00,
2013-05-01 09:35:00,63.9,55.4,30.24,SSE,161,3.0,6.0,74,0.00,,,0.00,Wunderground v.1.15,2013-05-01 13:35:00,
2013-05-01 09:40:00,64.2,55.7,30.24,SSE,164,3.0,6.0,74,0.00,,,0.00,Wunderground v.1.15,2013-05-01 13:40:00,
2013-05-01 09:45:00,64.7,55.8,30.24,South,171,2.0,7.0,73,0.00,,,0.00,Wunderground v.1.15,2013-05-01 13:45:00,
2013-05-01 09:50:00,65.0,56.1,30.24,South,169,2.0,7.0,73,0.00,,,0.00,Wunderground v.1.15,2013-05-01 13:50:00,
2013-05-01 09:55:00,65.6,56.3,30.24,SSW,207,5.0,5.0,72,0.00,,,0.00,Wunderground v.1.15,2013-05-01 13:55:00,
2013-05-01 10:00:00,66.1,56.8,30.24,SSW,202,2.0,5.0,72,0.00,,,0.00,Wunderground v.1.15,2013-05-01 14:00:00,
2013-05-01 10:05:00,66.6,56.5,30.24,South,175,1.0,5.0,70,0.00,,,0.00,Wunderground v.1.15,2013-05-01 14:05:00,
2013-05-01 10:10:00,66.8,56.3,30.24,SSW,201,6.0,6.0,69,0.00,,,0.00,Wunderground v.1.15,2013-05-01 14:10:00,
2013-05-01 10:15:00,67.1,56.6,30.25,SSE,155,0.0,4.0,69,0.00,,,0.00,Wunderground v.1.15,2013-05-01 14:15:00,
2013-05-01 10:20:00,67.6,56.7,30.25,SSE,163,1.0,4.0,68,0.00,,,0.00,Wunderground v.1.15,2013-05-01 14:20:00,
2013-05-01 10:25:00,68.1,57.1,30.24,SSW,194,1.0,4.0,68,0.00,,,0.00,Wunderground v.1.15,2013-05-01 14:25:00,
2013-05-01 10:30:00,68.8,57.0,30.25,SSW,194,2.0,4.0,66,0.00,,,0.00,Wunderground v.1.15,2013-05-01 14:30:00,
2013-05-01 10:35:00,69.1,56.4,30.25,SW,225,2.0,5.0,64,0.00,,,0.00,Wunderground v.1.15,2013-05-01 14:35:00,
2013-05-01 10:40:00,69.0,57.2,30.25,SE,142,3.0,7.0,66,0.00,,,0.00,Wunderground v.1.15,2013-05-01 14:40:00,
2013-05-01 10:45:00,69.4,56.7,30.25,East,87,2.0,4.0,64,0.00,,,0.00,Wunderground v.1.15,2013-05-01 14:45:00,
2013-05-01 10:50:00,69.6,56.9,30.25,ESE,112,3.0,8.0,64,0.00,,,0.00,Wunderground v.1.15,2013-05-01 14:50:00,
2013-05-01 10:55:00,70.1,57.8,30.25,SE,139,4.0,4.0,65,0.00,,,0.00,Wunderground v.1.15,2013-05-01 14:55:00,
2013-05-01 11:00:00,70.6,56.9,30.25,South,185,2.0,6.0,62,0.00,,,0.00,Wunderground v.1.15,2013-05-01 15:00:00,
2013-05-01 11:05:00,70.4,57.2,30.25,South,186,3.0,5.0,63,0.00,,,0.00,Wunderground v.1.15,2013-05-01 15:05:00,
2013-05-01 11:10:00,70.3,57.1,30.24,SE,142,1.0,6.0,63,0.00,,,0.00,Wunderground v.1.15,2013-05-01 15:10:00,
2013-05-01 11:14:00,70.8,57.6,30.24,NE,53,1.0,4.0,63,0.00,,,0.00,Wunderground v.1.15,2013-05-01 15:14:00,
2013-05-01 11:19:00,71.6,58.3,30.24,SE,145,2.0,4.0,63,0.00,,,0.00,Wunderground v.1.15,2013-05-01 15:19:00,
2013-05-01 11:24:00,71.9,57.7,30.24,SE,142,1.0,5.0,61,0.00,,,0.00,Wunderground v.1.15,2013-05-01 15:24:00,
2013-05-01 11:29:00,72.2,57.5,30.24,South,180,3.0,6.0,60,0.00,,,0.00,Wunderground v.1.15,2013-05-01 15:29:00,
2013-05-01 11:34:00,72.2,57.1,30.24,SSE,151,5.0,6.0,59,0.00,,,0.00,Wunderground v.1.15,2013-05-01 15:34:00,
2013-05-01 11:39:00,72.2,57.5,30.24,WSW,240,4.0,6.0,60,0.00,,,0.00,Wunderground v.1.15,2013-05-01 15:39:00,
2013-05-01 11:44:00,72.5,58.3,30.24,SSW,196,1.0,6.0,61,0.00,,,0.00,Wunderground v.1.15,2013-05-01 15:44:00,
2013-05-01 11:49:00,73.0,57.3,30.24,SSW,202,4.0,6.0,58,0.00,,,0.00,Wunderground v.1.15,2013-05-01 15:49:00,
2013-05-01 11:54:00,72.9,57.3,30.24,SSE,157,3.0,7.0,58,0.00,,,0.00,Wunderground v.1.15,2013-05-01 15:54:00,
2013-05-01 11:59:00,73.0,57.3,30.24,East,90,2.0,7.0,58,0.00,,,0.00,Wunderground v.1.15,2013-05-01 15:59:00,
2013-05-01 12:04:00,73.2,57.5,30.24,SSE,164,4.0,5.0,58,0.00,,,0.00,Wunderground v.1.15,2013-05-01 16:04:00,
2013-05-01 12:09:00,73.5,57.3,30.24,South,171,4.0,7.0,57,0.00,,,0.00,Wunderground v.1.15,2013-05-01 16:09:00,
2013-05-01 12:14:00,73.5,57.8,30.24,SSW,210,3.0,7.0,58,0.00,,,0.00,Wunderground v.1.15,2013-05-01 16:14:00,
2013-05-01 12:19:00,73.9,57.7,30.24,ESE,104,3.0,7.0,57,0.00,,,0.00,Wunderground v.1.15,2013-05-01 16:19:00,
2013-05-01 12:24:00,74.4,57.7,30.24,SSE,167,4.0,6.0,56,0.00,,,0.00,Wunderground v.1.15,2013-05-01 16:24:00,
2013-05-01 12:29:00,74.7,58.0,30.24,South,183,3.0,8.0,56,0.00,,,0.00,Wunderground v.1.15,2013-05-01 16:29:00,
2013-05-01 12:34:00,75.3,58.5,30.24,ESE,113,0.0,3.0,56,0.00,,,0.00,Wunderground v.1.15,2013-05-01 16:34:00,
2013-05-01 12:39:00,75.8,58.5,30.24,SE,140,3.0,6.0,55,0.00,,,0.00,Wunderground v.1.15,2013-05-01 16:39:00,
2013-05-01 12:44:00,76.1,58.8,30.24,East,82,1.0,6.0,55,0.00,,,0.00,Wunderground v.1.15,2013-05-01 16:44:00,
2013-05-01 12:49:00,76.5,57.6,30.24,ESE,113,1.0,7.0,52,0.00,,,0.00,Wunderground v.1.15,2013-05-01 16:49:00,
2013-05-01 12:54:00,76.2,56.7,30.24,South,175,3.0,9.0,51,0.00,,,0.00,Wunderground v.1.15,2013-05-01 16:54:00,
2013-05-01 12:59:00,75.9,57.0,30.24,SE,140,4.0,9.0,52,0.00,,,0.00,Wunderground v.1.15,2013-05-01 16:59:00,
2013-05-01 13:04:00,76.0,57.1,30.23,SSE,154,3.0,6.0,52,0.00,,,0.00,Wunderground v.1.15,2013-05-01 17:04:00,
2013-05-01 13:09:00,76.4,56.9,30.23,SSW,198,2.0,8.0,51,0.00,,,0.00,Wunderground v.1.15,2013-05-01 17:09:00,
2013-05-01 13:14:00,76.6,57.1,30.23,SSE,157,2.0,8.0,51,0.00,,,0.00,Wunderground v.1.15,2013-05-01 17:14:00,
2013-05-01 13:19:00,77.0,58.0,30.23,East,101,2.0,8.0,52,0.00,,,0.00,Wunderground v.1.15,2013-05-01 17:19:00,
2013-05-01 13:24:00,76.8,56.8,30.23,SSE,161,3.0,6.0,50,0.00,,,0.00,Wunderground v.1.15,2013-05-01 17:24:00,
2013-05-01 13:29:00,76.7,56.7,30.23,SE,130,4.0,9.0,50,0.00,,,0.00,Wunderground v.1.15,2013-05-01 17:29:00,
2013-05-01 13:34:00,76.9,56.3,30.23,East,84,2.0,6.0,49,0.00,,,0.00,Wunderground v.1.15,2013-05-01 17:34:00,
2013-05-01 13:39:00,77.2,56.6,30.23,SSE,160,4.0,9.0,49,0.00,,,0.00,Wunderground v.1.15,2013-05-01 17:39:00,
2013-05-01 13:44:00,77.2,55.4,30.23,ESE,104,5.0,8.0,47,0.00,,,0.00,Wunderground v.1.15,2013-05-01 17:44:00,
2013-05-01 13:49:00,77.1,55.9,30.23,SSW,203,6.0,8.0,48,0.00,,,0.00,Wunderground v.1.15,2013-05-01 17:49:00,
2013-05-01 13:54:00,77.3,56.6,30.23,ESE,119,3.0,7.0,49,0.00,,,0.00,Wunderground v.1.15,2013-05-01 17:54:00,
2013-05-01 13:59:00,77.5,55.7,30.23,SSE,167,3.0,13.0,47,0.00,,,0.00,Wunderground v.1.15,2013-05-01 17:59:00,
2013-05-01 14:04:00,77.6,56.9,30.23,SE,144,5.0,7.0,49,0.00,,,0.00,Wunderground v.1.15,2013-05-01 18:04:00,
2013-05-01 14:09:00,78.1,56.8,30.23,West,268,2.0,8.0,48,0.00,,,0.00,Wunderground v.1.15,2013-05-01 18:09:00,
2013-05-01 14:14:00,78.9,58.1,30.23,SSE,153,2.0,4.0,49,0.00,,,0.00,Wunderground v.1.15,2013-05-01 18:14:00,
2013-05-01 14:19:00,78.9,56.4,30.23,South,171,4.0,10.0,46,0.00,,,0.00,Wunderground v.1.15,2013-05-01 18:19:00,
2013-05-01 14:24:00,78.6,56.7,30.23,South,170,3.0,8.0,47,0.00,,,0.00,Wunderground v.1.15,2013-05-01 18:24:00,
2013-05-01 14:29:00,78.7,56.8,30.23,SE,132,4.0,8.0,47,0.00,,,0.00,Wunderground v.1.15,2013-05-01 18:29:00,
2013-05-01 14:34:00,78.5,56.6,30.23,SSE,159,2.0,10.0,47,0.00,,,0.00,Wunderground v.1.15,2013-05-01 18:34:00,
2013-05-01 14:39:00,78.5,56.0,30.23,South,188,2.0,10.0,46,0.00,,,0.00,Wunderground v.1.15,2013-05-01 18:39:00,
2013-05-01 14:44:00,78.6,56.1,30.23,SSE,156,2.0,13.0,46,0.00,,,0.00,Wunderground v.1.15,2013-05-01 18:44:00,
2013-05-01 14:49:00,78.9,56.4,30.23,SSE,159,2.0,13.0,46,0.00,,,0.00,Wunderground v.1.15,2013-05-01 18:49:00,
2013-05-01 14:54:00,78.9,55.8,30.23,SW,232,4.0,11.0,45,0.00,,,0.00,Wunderground v.1.15,2013-05-01 18:54:00,
2013-05-01 14:59:00,79.2,56.0,30.23,South,176,3.0,11.0,45,0.00,,,0.00,Wunderground v.1.15,2013-05-01 18:59:00,
2013-05-01 15:04:00,78.7,55.6,30.23,SSE,154,4.0,12.0,45,0.00,,,0.00,Wunderground v.1.15,2013-05-01 19:04:00,
2013-05-01 15:09:00,78.6,56.1,30.23,SSW,194,5.0,12.0,46,0.00,,,0.00,Wunderground v.1.15,2013-05-01 19:09:00,
2013-05-01 15:14:00,78.8,56.3,30.23,SSW,192,7.0,12.0,46,0.00,,,0.00,Wunderground v.1.15,2013-05-01 19:14:00,
2013-05-01 15:19:00,78.7,56.2,30.22,SSE,155,5.0,12.0,46,0.00,,,0.00,Wunderground v.1.15,2013-05-01 19:19:00,
2013-05-01 15:24:00,78.9,55.8,30.22,SSE,163,4.0,12.0,45,0.00,,,0.00,Wunderground v.1.15,2013-05-01 19:24:00,
2013-05-01 15:29:00,79.2,56.0,30.22,SE,128,4.0,12.0,45,0.00,,,0.00,Wunderground v.1.15,2013-05-01 19:29:00,
2013-05-01 15:34:00,79.3,55.5,30.22,South,182,11.0,12.0,44,0.00,,,0.00,Wunderground v.1.15,2013-05-01 19:34:00,
2013-05-01 15:39:00,79.4,56.2,30.22,South,175,3.0,12.0,45,0.00,,,0.00,Wunderground v.1.15,2013-05-01 19:39:00,
2013-05-01 15:44:00,79.3,56.1,30.22,SSW,209,4.0,14.0,45,0.00,,,0.00,Wunderground v.1.15,2013-05-01 19:44:00,
2013-05-01 15:49:00,79.5,56.9,30.23,SSE,155,5.0,14.0,46,0.00,,,0.00,Wunderground v.1.15,2013-05-01 19:49:00,
2013-05-01 15:54:00,80.0,56.7,30.23,South,188,4.0,9.0,45,0.00,,,0.00,Wunderground v.1.15,2013-05-01 19:54:00,
2013-05-01 15:59:00,79.5,56.3,30.22,SE,134,1.0,16.0,45,0.00,,,0.00,Wunderground v.1.15,2013-05-01 19:59:00,
2013-05-01 16:04:00,79.6,57.0,30.22,SSE,168,3.0,7.0,46,0.00,,,0.00,Wunderground v.1.15,2013-05-01 20:04:00,
2013-05-01 16:09:00,80.0,56.7,30.22,SW,218,2.0,7.0,45,0.00,,,0.00,Wunderground v.1.15,2013-05-01 20:09:00,
2013-05-01 16:14:00,80.4,56.5,30.22,South,178,5.0,11.0,44,0.00,,,0.00,Wunderground v.1.15,2013-05-01 20:14:00,
2013-05-01 16:19:00,79.8,56.6,30.22,SE,146,3.0,11.0,45,0.00,,,0.00,Wunderground v.1.15,2013-05-01 20:19:00,
2013-05-01 16:24:00,79.8,57.2,30.22,SE,141,1.0,9.0,46,0.00,,,0.00,Wunderground v.1.15,2013-05-01 20:24:00,
2013-05-01 16:29:00,80.0,56.7,30.22,WSW,242,4.0,10.0,45,0.00,,,0.00,Wunderground v.1.15,2013-05-01 20:29:00,
2013-05-01 16:34:00,80.0,56.1,30.22,South,184,5.0,11.0,44,0.00,,,0.00,Wunderground v.1.15,2013-05-01 20:34:00,
2013-05-01 16:39:00,80.2,56.9,30.22,South,173,2.0,11.0,45,0.00,,,0.00,Wunderground v.1.15,2013-05-01 20:39:00,
2013-05-01 16:44:00,80.4,56.5,30.22,South,177,2.0,8.0,44,0.00,,,0.00,Wunderground v.1.15,2013-05-01 20:44:00,
2013-05-01 16:49:00,80.3,56.4,30.22,SW,223,3.0,8.0,44,0.00,,,0.00,Wunderground v.1.15,2013-05-01 20:49:00,
2013-05-01 16:54:00,80.4,56.5,30.22,SSE,152,4.0,6.0,44,0.00,,,0.00,Wunderground v.1.15,2013-05-01 20:54:00,
2013-05-01 16:59:00,80.0,56.7,30.22,SSE,148,5.0,9.0,45,0.00,,,0.00,Wunderground v.1.15,2013-05-01 20:59:00,
2013-05-01 17:04:00,80.1,56.8,30.22,SSW,207,3.0,4.0,45,0.00,,,0.00,Wunderground v.1.15,2013-05-01 21:04:00,
2013-05-01 17:09:00,80.1,56.8,30.22,ESE,105,4.0,9.0,45,0.00,,,0.00,Wunderground v.1.15,2013-05-01 21:09:00,
2013-05-01 17:14:00,80.1,56.2,30.22,South,171,3.0,7.0,44,0.00,,,0.00,Wunderground v.1.15,2013-05-01 21:14:00,
2013-05-01 17:19:00,80.1,56.8,30.22,SE,140,6.0,9.0,45,0.00,,,0.00,Wunderground v.1.15,2013-05-01 21:19:00,
2013-05-01 17:24:00,79.6,55.8,30.22,SSE,166,3.0,9.0,44,0.00,,,0.00,Wunderground v.1.15,2013-05-01 21:24:00,
2013-05-01 17:29:00,79.1,55.3,30.22,SSE,152,3.0,12.0,44,0.00,,,0.00,Wunderground v.1.15,2013-05-01 21:29:00,
2013-05-01 17:34:00,79.1,55.3,30.22,WNW,289,2.0,7.0,44,0.00,,,0.00,Wunderground v.1.15,2013-05-01 21:34:00,
2013-05-01 17:39:00,79.1,55.3,30.23,SSW,206,2.0,10.0,44,0.00,,,0.00,Wunderground v.1.15,2013-05-01 21:39:00,
2013-05-01 17:44:00,79.0,55.2,30.23,South,183,4.0,11.0,44,0.00,,,0.00,Wunderground v.1.15,2013-05-01 21:44:00,
2013-05-01 17:49:00,78.9,55.1,30.23,SSE,155,4.0,12.0,44,0.00,,,0.00,Wunderground v.1.15,2013-05-01 21:49:00,
2013-05-01 17:54:00,78.8,55.0,30.23,SSE,161,4.0,12.0,44,0.00,,,0.00,Wunderground v.1.15,2013-05-01 21:54:00,
2013-05-01 17:59:00,79.0,55.2,30.23,SE,135,1.0,12.0,44,0.00,,,0.00,Wunderground v.1.15,2013-05-01 21:59:00,
2013-05-01 18:04:00,78.9,54.5,30.23,South,171,6.0,7.0,43,0.00,,,0.00,Wunderground v.1.15,2013-05-01 22:04:00,
2013-05-01 18:09:00,78.7,55.0,30.23,SSW,209,4.0,9.0,44,0.00,,,0.00,Wunderground v.1.15,2013-05-01 22:09:00,
2013-05-01 18:14:00,78.5,54.8,30.23,SSE,163,3.0,5.0,44,0.00,,,0.00,Wunderground v.1.15,2013-05-01 22:14:00,
2013-05-01 18:19:00,78.4,54.7,30.23,SSE,157,3.0,7.0,44,0.00,,,0.00,Wunderground v.1.15,2013-05-01 22:19:00,
2013-05-01 18:24:00,78.4,55.3,30.23,SSE,150,5.0,7.0,45,0.00,,,0.00,Wunderground v.1.15,2013-05-01 22:24:00,
2013-05-01 18:29:00,78.3,54.6,30.23,South,186,5.0,8.0,44,0.00,,,0.00,Wunderground v.1.15,2013-05-01 22:29:00,
2013-05-01 18:34:00,78.4,55.3,30.23,ESE,117,1.0,7.0,45,0.00,,,0.00,Wunderground v.1.15,2013-05-01 22:34:00,
2013-05-01 18:39:00,78.4,55.3,30.23,SE,139,5.0,7.0,45,0.00,,,0.00,Wunderground v.1.15,2013-05-01 22:39:00,
2013-05-01 18:44:00,78.3,54.6,30.23,SE,128,3.0,8.0,44,0.00,,,0.00,Wunderground v.1.15,2013-05-01 22:44:00,
2013-05-01 18:49:00,78.1,55.0,30.23,SSE,159,2.0,9.0,45,0.00,,,0.00,Wunderground v.1.15,2013-05-01 22:49:00,
2013-05-01 18:54:00,78.0,54.9,30.23,South,182,2.0,8.0,45,0.00,,,0.00,Wunderground v.1.15,2013-05-01 22:54:00,
2013-05-01 18:59:00,78.0,54.3,30.23,SSW,212,4.0,9.0,44,0.00,,,0.00,Wunderground v.1.15,2013-05-01 22:59:00,
2013-05-01 19:04:00,77.8,54.1,30.23,South,184,2.0,6.0,44,0.00,,,0.00,Wunderground v.1.15,2013-05-01 23:04:00,
2013-05-01 19:08:00,77.7,54.7,30.23,SE,133,4.0,9.0,45,0.00,,,0.00,Wunderground v.1.15,2013-05-01 23:08:00,
2013-05-01 19:13:00,77.6,54.6,30.23,SSE,163,2.0,5.0,45,0.00,,,0.00,Wunderground v.1.15,2013-05-01 23:13:00,
2013-05-01 19:18:00,77.5,54.5,30.23,SSW,210,1.0,5.0,45,0.00,,,0.00,Wunderground v.1.15,2013-05-01 23:18:00,
2013-05-01 19:23:00,77.5,54.5,30.23,SSE,155,3.0,5.0,45,0.00,,,0.00,Wunderground v.1.15,2013-05-01 23:23:00,
2013-05-01 19:28:00,77.3,54.3,30.23,SSW,211,1.0,6.0,45,0.00,,,0.00,Wunderground v.1.15,2013-05-01 23:28:00,
2013-05-01 19:33:00,77.2,54.2,30.23,South,173,2.0,5.0,45,0.00,,,0.00,Wunderground v.1.15,2013-05-01 23:33:00,
2013-05-01 19:38:00,77.0,54.0,30.23,South,180,2.0,6.0,45,0.00,,,0.00,Wunderground v.1.15,2013-05-01 23:38:00,
2013-05-01 19:43:00,76.8,53.8,30.23,SSW,197,0.0,5.0,45,0.00,,,0.00,Wunderground v.1.15,2013-05-01 23:43:00,
2013-05-01 19:48:00,76.7,53.8,30.23,South,178,1.0,5.0,45,0.00,,,0.00,Wunderground v.1.15,2013-05-01 23:48:00,
2013-05-01 19:53:00,76.6,54.3,30.23,South,171,0.0,2.0,46,0.00,,,0.00,Wunderground v.1.15,2013-05-01 23:53:00,
2013-05-01 19:58:00,76.4,54.1,30.23,SSE,161,1.0,3.0,46,0.00,,,0.00,Wunderground v.1.15,2013-05-01 23:58:00,
2013-05-01 20:03:00,76.0,54.3,30.23,SSE,163,1.0,4.0,47,0.00,,,0.00,Wunderground v.1.15,2013-05-02 00:03:00,
2013-05-01 20:08:00,75.6,53.9,30.23,SSE,159,2.0,4.0,47,0.00,,,0.00,Wunderground v.1.15,2013-05-02 00:08:00,
2013-05-01 20:13:00,75.3,53.7,30.23,SSE,149,2.0,3.0,47,0.00,,,0.00,Wunderground v.1.15,2013-05-02 00:13:00,
2013-05-01 20:18:00,74.9,53.9,30.23,ESE,123,0.0,3.0,48,0.00,,,0.00,Wunderground v.1.15,2013-05-02 00:18:00,
2013-05-01 20:23:00,74.6,54.2,30.23,ESE,123,0.0,2.0,49,0.00,,,0.00,Wunderground v.1.15,2013-05-02 00:23:00,
2013-05-01 20:28:00,74.2,54.4,30.23,East,101,3.0,6.0,50,0.00,,,0.00,Wunderground v.1.15,2013-05-02 00:28:00,
2013-05-01 20:33:00,73.7,55.5,30.23,ESE,104,1.0,4.0,53,0.00,,,0.00,Wunderground v.1.15,2013-05-02 00:33:00,
2013-05-01 20:38:00,73.3,56.7,30.23,East,100,2.0,7.0,56,0.00,,,0.00,Wunderground v.1.15,2013-05-02 00:38:00,
2013-05-01 20:43:00,72.8,56.7,30.24,East,100,0.0,5.0,57,0.00,,,0.00,Wunderground v.1.15,2013-05-02 00:43:00,
2013-05-01 20:48:00,72.3,57.2,30.23,ESE,106,1.0,5.0,59,0.00,,,0.00,Wunderground v.1.15,2013-05-02 00:48:00,
2013-05-01 20:53:00,71.9,57.3,30.24,ESE,107,2.0,2.0,60,0.00,,,0.00,Wunderground v.1.15,2013-05-02 00:53:00,
2013-05-01 20:58:00,71.5,57.3,30.24,ESE,102,1.0,5.0,61,0.00,,,0.00,Wunderground v.1.15,2013-05-02 00:58:00,
2013-05-01 21:03:00,71.1,57.0,30.24,SSE,163,1.0,3.0,61,0.00,,,0.00,Wunderground v.1.15,2013-05-02 01:03:00,
2013-05-01 21:08:00,70.8,57.6,30.24,SE,132,0.0,4.0,63,0.00,,,0.00,Wunderground v.1.15,2013-05-02 01:08:00,
2013-05-01 21:13:00,70.5,57.3,30.24,SE,133,1.0,3.0,63,0.00,,,0.00,Wunderground v.1.15,2013-05-02 01:13:00,
2013-05-01 21:18:00,70.2,57.4,30.24,East,88,2.0,3.0,64,0.00,,,0.00,Wunderground v.1.15,2013-05-02 01:18:00,
2013-05-01 21:23:00,69.8,57.5,30.24,ESE,109,2.0,3.0,65,0.00,,,0.00,Wunderground v.1.15,2013-05-02 01:23:00,
2013-05-01 21:28:00,69.5,57.2,30.24,ESE,109,1.0,3.0,65,0.00,,,0.00,Wunderground v.1.15,2013-05-02 01:28:00,
2013-05-01 21:33:00,69.3,57.0,30.25,ESE,109,0.0,2.0,65,0.00,,,0.00,Wunderground v.1.15,2013-05-02 01:33:00,
2013-05-01 21:38:00,68.9,57.1,30.25,SSE,167,3.0,3.0,66,0.00,,,0.00,Wunderground v.1.15,2013-05-02 01:38:00,
2013-05-01 21:43:00,68.6,57.2,30.25,ESE,110,2.0,4.0,67,0.00,,,0.00,Wunderground v.1.15,2013-05-02 01:43:00,
2013-05-01 21:48:00,68.4,57.4,30.25,ESE,110,1.0,4.0,68,0.00,,,0.00,Wunderground v.1.15,2013-05-02 01:48:00,
2013-05-01 21:53:00,68.2,57.2,30.25,SSE,148,1.0,3.0,68,0.00,,,0.00,Wunderground v.1.15,2013-05-02 01:53:00,
2013-05-01 21:58:00,68.0,57.4,30.25,SSE,148,1.0,3.0,69,0.00,,,0.00,Wunderground v.1.15,2013-05-02 01:58:00,
2013-05-01 22:03:00,67.8,57.3,30.25,SSE,148,1.0,2.0,69,0.00,,,0.00,Wunderground v.1.15,2013-05-02 02:03:00,
2013-05-01 22:08:00,67.6,57.1,30.25,SSE,148,0.0,2.0,69,0.00,,,0.00,Wunderground v.1.15,2013-05-02 02:08:00,
2013-05-01 22:13:00,67.3,57.2,30.25,SSE,148,1.0,3.0,70,0.00,,,0.00,Wunderground v.1.15,2013-05-02 02:13:00,
2013-05-01 22:18:00,67.1,57.0,30.25,East,90,6.0,6.0,70,0.00,,,0.00,Wunderground v.1.15,2013-05-02 02:18:00,
2013-05-01 22:23:00,67.0,56.9,30.25,East,96,1.0,3.0,70,0.00,,,0.00,Wunderground v.1.15,2013-05-02 02:23:00,
2013-05-01 22:28:00,66.8,56.7,30.25,East,96,3.0,3.0,70,0.00,,,0.00,Wunderground v.1.15,2013-05-02 02:28:00,
2013-05-01 22:33:00,66.6,56.9,30.25,East,96,0.0,2.0,71,0.00,,,0.00,Wunderground v.1.15,2013-05-02 02:33:00,
2013-05-01 22:38:00,66.3,56.6,30.26,East,94,2.0,5.0,71,0.00,,,0.00,Wunderground v.1.15,2013-05-02 02:38:00,
2013-05-01 22:43:00,66.1,56.0,30.26,SE,125,2.0,3.0,70,0.00,,,0.00,Wunderground v.1.15,2013-05-02 02:43:00,
2013-05-01 22:48:00,65.9,55.4,30.26,ESE,106,2.0,4.0,69,0.00,,,0.00,Wunderground v.1.15,2013-05-02 02:48:00,
2013-05-01 22:53:00,65.8,54.9,30.26,ESE,115,1.0,5.0,68,0.00,,,0.00,Wunderground v.1.15,2013-05-02 02:53:00,
2013-05-01 22:58:00,65.6,55.2,30.26,East,93,0.0,7.0,69,0.00,,,0.00,Wunderground v.1.15,2013-05-02 02:58:00,
2013-05-01 23:03:00,65.4,55.4,30.26,East,93,0.0,3.0,70,0.00,,,0.00,Wunderground v.1.15,2013-05-02 03:03:00,
2013-05-01 23:08:00,65.1,55.1,30.26,East,93,1.0,3.0,70,0.00,,,0.00,Wunderground v.1.15,2013-05-02 03:08:00,
2013-05-01 23:13:00,64.8,54.8,30.26,East,93,0.0,2.0,70,0.00,,,0.00,Wunderground v.1.15,2013-05-02 03:13:00,
2013-05-01 23:18:00,64.5,54.5,30.26,ESE,110,2.0,5.0,70,0.00,,,0.00,Wunderground v.1.15,2013-05-02 03:18:00,
2013-05-01 23:23:00,64.3,54.3,30.26,ESE,107,1.0,4.0,70,0.00,,,0.00,Wunderground v.1.15,2013-05-02 03:23:00,
2013-05-01 23:28:00,64.1,54.1,30.26,ESE,107,0.0,4.0,70,0.00,,,0.00,Wunderground v.1.15,2013-05-02 03:28:00,
2013-05-01 23:33:00,63.8,54.2,30.26,ESE,107,1.0,1.0,71,0.00,,,0.00,Wunderground v.1.15,2013-05-02 03:33:00,
2013-05-01 23:38:00,63.5,53.5,30.26,East,88,2.0,3.0,70,0.00,,,0.00,Wunderground v.1.15,2013-05-02 03:38:00,
2013-05-01 23:43:00,63.4,53.4,30.26,East,94,1.0,5.0,70,0.00,,,0.00,Wunderground v.1.15,2013-05-02 03:43:00,
2013-05-01 23:48:00,63.1,53.2,30.26,East,94,2.0,5.0,70,0.00,,,0.00,Wunderground v.1.15,2013-05-02 03:48:00,
2013-05-01 23:53:00,62.9,53.0,30.26,East,94,1.0,2.0,70,0.00,,,0.00,Wunderground v.1.15,2013-05-02 03:53:00,
2013-05-01 23:58:00,62.8,52.9,30.26,East,94,1.0,2.0,70,0.00,,,0.00,Wunderground v.1.15,2013-05-02 03:58:00,